Regional Weather Roundup
Issued by NWS

Home | Current Version | Previous Version | Graphics & Text | Print | Product List | Glossary On
Versions: 1 2 3 4 5 6 7 8 9 10 11 12 13 14 15 16 17 18 19 20 21 22 23 24 25 26 27 28
000
ASUS45 KBOI 171310
RWRID
WEATHER ROUNDUP FOR IDAHO
NATIONAL WEATHER SERVICE BOISE ID
700 AM MDT THU APR 17 2014

NOTE: "FAIR" INDICATES FEW OR NO CLOUDS BELOW 12000 FEET
WITH NO SIGNIFICANT WEATHER AND/OR OBSTRUCTIONS TO VISIBILITY

IDZ012-014-171400-
SOUTHWEST IDAHO


CITY           SKY/WX    TMP DP  RH WIND       PRES   REMARKS
BOISE          CLEAR     43  23  45 SE9       29.95F
CALDWELL       CLEAR     37  19  48 SE5       29.98S WCI  34
MOUNTAIN HOME  CLEAR     34  20  57 E8        29.97S WCI  27
$$

IDZ016-017-171400-
SOUTHCENTRAL IDAHO


CITY           SKY/WX    TMP DP  RH WIND       PRES   REMARKS
BURLEY         PTCLDY    35  20  54 CALM      30.00R
JEROME         PTCLDY    38  20  48 SE6       30.00R WCI  33
TWIN FALLS     PTCLDY    39  18  42 S13       29.99R WCI  31
$$

IDZ019>023-171400-
SOUTHEAST IDAHO


CITY           SKY/WX    TMP DP  RH WIND       PRES   REMARKS
IDAHO FALLS    PTCLDY    32  18  56 SW6       30.03R WCI  26
POCATELLO      CLEAR     29  18  63 N6        30.03R WCI  23
REXBURG        PTCLDY    33  17  51 SW5       30.02R WCI  29
$$

IDZ006-010-011-018-031-032-171400-
CENTRAL IDAHO MOUNTAINS


CITY           SKY/WX    TMP DP  RH WIND       PRES   REMARKS
MCCALL         MOCLDY    30  22  72 CALM      29.96S
HAILEY         PTCLDY    34  19  55 NW10      30.01S WCI  26
STANLEY          N/A     18  14  84 CALM      30.03R
SALMON         MOCLDY    30  21  69 CALM      29.99S
CHALLIS        CLEAR     27  17  66 CALM      30.00S
$$

IDZ002-004-006-007-026-171400-
NORTHERN IDAHO


CITY           SKY/WX    TMP DP  RH WIND       PRES   REMARKS
LEWISTON       CLOUDY    48  38  68 NE6       29.89F
LOWELL           N/A     43  39  86 NW5       29.97F
COEUR D`ALENE  CLOUDY    43  39  87 S9        29.89S
MULLAN PASS    SNOW      31  30  96 VRB6      29.86F VSB 1/4 WCI  25
$$



USA.gov is the U.S. government's official web portal to all federal, state and local government web resources and services.